Showing default

HULIANWANG DIGUI-10, 62332

Orbit data source: Space-Track

HULIANWANG DIGUI-10, 62332 is a payload satellite owned by Zhongguo Xingwang (CN) in LEO that was launched on Mon, 16 Dec 2024 UTC via a CHANG ZHENG 5B/YZ-2 launch vehicle from the Wenchang Satellite Launch Center (WSC). Payload-class satellites include a variety of spacecraft equipped with specific instruments for various scientific and technological missions. These include communications satellites like Starlink; space stations such as the ISS; scientific satellites like the Hubble; Earth observation satellites from companies like Planet Labs, Umbra, and HawkEye 360; GPS; miniature CubeSats for education and research; and military/defense satellites.

Loading next visibility...
Identifier
62332, 2024-240K
Orbit
LEO
Country
Flag of CNCN / PRC
Related business
Manufacturer
CAST?
Mission
Operational Civil Communications
Bus & Motor
GUOWANG C, Unknown motor
Mass
~800 kg wet, ~800 kg dry
Launch date (UTC)
2024-12-16 (10 months ago)
Launch vehicle
CHANG ZHENG 5B/YZ-2
Launch site
Wenchang Satellite Launch Center (WSC)
Object type
Payload
Rocket body
Debris
Shape & HBR
Box + 2 Pan, 5.0 m
Radar Cross Section
5.935 m², Large (>1 m²)

Expand to show TLE details & history
Last TLE update: 6 hours ago

TLE from 6 hours ago
0 HULIANWANG DIGUI-10
1 62332U 24240K   25290.88188332  .00000047  00000-0  76456-4 0  9990
2 62332  86.4992  65.0839 0001709 111.8200 248.3116 13.24414191 40567
Epoch: 2025-10-17T21:09Z
TLE epoch observation values (Epoch: 2025-10-17T21:09:54.718Z)
Latitude
-0.00004°
Longitude
80.98502°
Altitude
1,171.277 km
Speed
7.267 km/s
True Right ascension
04h 20m 20s
True Declination
0° 00' 00"
Sunlit
Object was in full shadow at epoch
Visualization orbit readout
Latitude
Unknown
Longitude
Unknown
Altitude
Unknown
Speed
Unknown
Apparent Right ascension
Unknown
Apparent Declination
Unknown
Sunlit
N/A
Visualization observer readout
Local Sidereal Time
21:33:41
Azimuth
Unknown
Elevation
Unknown
Doppler factor
Unknown
Orbital elements
Apogee altitude
1,166.315 km
Perigee altitude
1,163.737 km
Semi-major axis
7,543.163 km
Eccentricity
0.00017
Inclination
86.4992°
RAAN
65.0839°
Arg. of periapsis
111.82°
True anomaly
248.2934°
Mean anomaly
248.3116°
Eccentric anomaly
248.3025°
Mean motion
3.31294 °/min
Orbital period
108.66 mins
BSTAR
0.000076456
Loading maneuver chart data...
Computing Atmospheric mass density...
Loading historical data...
Loading historical data...
Loading historical data...
Loading historical data...
Loading historical data...
Loading historical data...
Loading historical data...

Documentation

Showing up to 5 results
|